Chicago Lansing, IL

5:35 AM CDT on October 17, 2017 (GMT -0500)
Lansing Municipal

Weather History for KIGQ - November, 2012

Change the Weather History Date:

Wednesday, November 21, 2012

  Actual Average (KGYY) Record (KGYY)
Temperature  
Mean Temperature 44 °F -  
Max Temperature 56 °F 41 °F 65 °F (1953)
Min Temperature 33 °F 28 °F 8 °F (1964)
Degree Days  
Heating Degree Days 20    
Moisture  
Dew Point 40 °F    
Average Humidity 92    
Maximum Humidity 100    
Minimum Humidity 68    
Precipitation  
Precipitation 0.00 in - - ()
Sea Level Pressure  
Sea Level Pressure 30.18 in    
Wind  
Wind Speed 3 mph (SSW)    
Max Wind Speed 12 mph    
Max Gust Speed -    
Visibility 3 miles    
Events Fog , Snow    
Averages and records for this station are not official NWS values.
T = Trace of Precipitation, MM = Missing Value Source: NWS Daily Summary

Daily Weather History Graph

Daily Weather History Graph

Search for Another Location

Airport or City:

Trip Planner

Search our weather history database for the weather conditions in past years. The results will help you decide how hot, cold, wet, or windy it might be!

Date:

Astronomy

Nov. 21, 2012 Rise Set
Actual Time 6:46 AM CST 4:25 PM CST
Civil Twilight 6:16 AM CST 4:55 PM CST
Nautical Twilight 5:42 AM CST 5:29 PM CST
Astronomical Twilight 5:09 AM CST 6:02 PM CST
Moon 12:45 PM CST (11/21) 12:00 AM CST (11/21)
Length of Visible Light 10h 39m
Length of Day
9h 38m
First Quarter, 62% of the Moon is Illuminated
Nov 21
First Quarter
Nov 28
Full
Dec 6
Last Quarter
Dec 13
New
Dec 19
First Quarter

Hourly Weather History & Observations

Time (CST) Temp. Windchill Dew Point Humidity Pressure Visibility Wind Dir Wind Speed Gust Speed Precip Events Conditions
12:15 AM 34.0 °F - 33.6 °F 99% 30.18 in 0.2 mi Calm Calm - N/A Fog Fog
12:35 AM 34.0 °F - 33.6 °F 99% 30.19 in 0.2 mi Calm Calm - N/A Fog Fog
12:55 AM 33.4 °F - 33.1 °F 99% 30.19 in 0.2 mi Calm Calm - N/A Fog Fog
1:15 AM 33.8 °F - 33.4 °F 99% 30.19 in 0.2 mi Calm Calm - N/A Fog Fog
1:35 AM 34.3 °F - 34.0 °F 99% 30.20 in 0.2 mi Calm Calm - N/A Fog Fog
1:55 AM 34.0 °F - 33.6 °F 99% 30.19 in 0.2 mi Calm Calm - N/A Fog Fog
2:15 AM 34.7 °F - 34.3 °F 99% 30.19 in 0.2 mi Calm Calm - N/A Fog Fog
2:35 AM 34.7 °F - 34.3 °F 99% 30.19 in 0.2 mi Calm Calm - N/A Snow Light Snow
2:55 AM 34.7 °F - 34.3 °F 99% 30.19 in 0.2 mi Calm Calm - N/A Snow Light Snow
3:15 AM 33.8 °F - 33.6 °F 99% 30.19 in 0.2 mi Calm Calm - N/A Fog Fog
3:35 AM 34.3 °F - 34.0 °F 99% 30.18 in 0.2 mi Calm Calm - N/A Fog Fog
3:55 AM 34.7 °F - 34.3 °F 99% 30.19 in 0.2 mi Calm Calm - N/A Fog Fog
4:15 AM 34.7 °F - 34.3 °F 99% 30.20 in 0.2 mi Calm Calm - N/A Fog Fog
4:35 AM 34.2 °F - 33.8 °F 99% 30.20 in 0.2 mi Calm Calm - N/A Fog Fog
4:55 AM 34.2 °F - 33.8 °F 99% 30.21 in 0.2 mi Calm Calm - N/A Fog Fog
5:15 AM 34.3 °F - 34.0 °F 99% 30.21 in 0.2 mi Calm Calm - N/A Fog Fog
5:35 AM 34.3 °F - 34.0 °F 99% 30.21 in 0.2 mi Calm Calm - N/A Snow Light Snow
5:55 AM 34.0 °F - 33.8 °F 99% 30.21 in 0.2 mi Calm Calm - N/A Snow Light Snow
6:15 AM 33.8 °F - 33.3 °F 98% 30.21 in 0.2 mi Calm Calm - N/A Snow Light Snow
6:35 AM 33.4 °F - 33.1 °F 99% 30.22 in 0.2 mi Calm Calm - N/A Snow Light Snow
6:55 AM 33.8 °F - 33.3 °F 98% 30.22 in 0.2 mi Calm Calm - N/A Snow Light Snow
7:15 AM 33.8 °F - 33.4 °F 99% 30.23 in 0.2 mi Calm Calm - N/A Snow Light Snow
7:35 AM 34.0 °F - 33.6 °F 99% 30.23 in 0.2 mi Calm Calm - N/A Snow Light Snow
7:55 AM 34.3 °F - 34.0 °F 99% 30.23 in 0.2 mi Calm Calm - N/A Snow Light Snow
8:15 AM 34.9 °F 32.0 °F 34.7 °F 99% 30.24 in 0.2 mi South 3.5 mph - N/A Fog Fog
8:35 AM 36.0 °F 33.3 °F 35.6 °F 99% 30.24 in 0.2 mi SSW 3.5 mph - N/A Fog Fog
8:55 AM 37.0 °F 33.3 °F 36.7 °F 99% 30.24 in 0.2 mi SSW 4.6 mph - N/A Fog Fog
9:15 AM 38.8 °F 35.4 °F 38.5 °F 99% 30.24 in 0.2 mi South 4.6 mph - N/A Fog Fog
9:35 AM 40.5 °F 37.3 °F 40.1 °F 99% 30.25 in 0.2 mi SSW 4.6 mph - N/A Fog Fog
9:55 AM 41.0 °F 37.1 °F 41.0 °F 100% 30.25 in 0.5 mi South 5.8 mph - N/A Fog Fog
10:15 AM 43.0 °F 39.5 °F 42.8 °F 99% 30.26 in 1.2 mi SSW 5.8 mph - N/A   Overcast
10:35 AM 44.1 °F 40.1 °F 43.7 °F 99% 30.25 in 1.8 mi SSW 6.9 mph - N/A   Overcast
10:55 AM 45.7 °F 41.5 °F 45.5 °F 99% 30.24 in 2.0 mi SSW 8.1 mph - N/A   Mostly Cloudy
11:15 AM 47.5 °F - 47.3 °F 99% 30.23 in 3.0 mi SSW 6.9 mph - N/A   Scattered Clouds
11:35 AM 48.6 °F - 47.5 °F 96% 30.22 in 4.0 mi SSW 6.9 mph - N/A   Clear
11:55 AM 50.0 °F - 46.9 °F 89% 30.21 in 5.0 mi SW 8.1 mph - N/A   Clear
12:15 PM 51.1 °F - 47.3 °F 87% 30.21 in 5.0 mi SSW 8.1 mph - N/A   Clear
12:35 PM 52.7 °F - 47.1 °F 81% 30.21 in 7.0 mi SW 9.2 mph - N/A   Clear
12:55 PM 55.4 °F - 46.4 °F 72% 30.20 in 7.0 mi SSW 10.4 mph - N/A   Clear
1:15 PM 54.9 °F - 46.4 °F 73% 30.19 in 5.0 mi SSW 6.9 mph - N/A   Haze
1:35 PM 55.6 °F - 46.4 °F 71% 30.19 in 5.0 mi WSW 10.4 mph - N/A   Haze
1:55 PM 55.9 °F - 46.6 °F 71% 30.18 in 5.0 mi SW 11.5 mph - N/A   Haze
2:15 PM 56.3 °F - 46.9 °F 71% 30.18 in 5.0 mi SW 10.4 mph - N/A   Haze
2:35 PM 56.3 °F - 46.6 °F 70% 30.17 in 5.0 mi SW 10.4 mph - N/A   Haze
2:55 PM 56.5 °F - 46.0 °F 68% 30.17 in 5.0 mi West 9.2 mph - N/A   Haze
3:15 PM 56.3 °F - 46.0 °F 68% 30.16 in 7.0 mi SW 9.2 mph - N/A   Clear
3:35 PM 55.6 °F - 46.4 °F 71% 30.16 in 7.0 mi SSW 5.8 mph - N/A   Clear
3:55 PM 53.6 °F - 46.0 °F 76% 30.15 in 5.0 mi South 5.8 mph - N/A   Haze
4:15 PM 52.0 °F - 45.7 °F 79% 30.15 in 5.0 mi South 4.6 mph - N/A   Haze
4:35 PM 49.3 °F - 44.4 °F 83% 30.14 in 5.0 mi South 4.6 mph - N/A   Clear
4:55 PM 47.5 °F - 43.3 °F 86% 30.14 in 5.0 mi SSE 5.8 mph - N/A   Haze
5:15 PM 50.5 °F - 45.5 °F 83% 30.14 in 7.0 mi South 5.8 mph - N/A   Clear
5:35 PM 50.4 °F - 45.5 °F 83% 30.14 in 7.0 mi South 4.6 mph - N/A   Clear
5:55 PM 46.4 °F 44.3 °F 42.8 °F 87% 30.15 in 5.0 mi South 4.6 mph - N/A   Clear
6:15 PM 44.6 °F 42.2 °F 42.4 °F 92% 30.15 in 4.0 mi South 4.6 mph - N/A   Clear
6:35 PM 44.8 °F 41.6 °F 42.4 °F 91% 30.15 in 5.0 mi South 5.8 mph - N/A   Clear
6:55 PM 44.1 °F 40.8 °F 41.4 °F 90% 30.15 in 5.0 mi SSW 5.8 mph - N/A   Clear
7:15 PM 44.8 °F 41.0 °F 42.1 °F 90% 30.15 in 5.0 mi SSW 6.9 mph - N/A   Clear
7:35 PM 44.8 °F 40.4 °F 42.3 °F 91% 30.15 in 5.0 mi SSW 8.1 mph - N/A   Clear
7:55 PM 45.9 °F 41.7 °F 43.2 °F 90% 30.14 in 5.0 mi SSW 8.1 mph - N/A   Clear
8:15 PM 44.8 °F 41.6 °F 42.3 °F 91% 30.14 in 5.0 mi SSW 5.8 mph - N/A   Clear
8:35 PM 43.3 °F 39.2 °F 40.8 °F 91% 30.14 in 5.0 mi SSW 6.9 mph - N/A   Clear
8:55 PM 41.7 °F 37.3 °F 40.3 °F 95% 30.14 in 4.0 mi SSW 6.9 mph - N/A   Clear
9:15 PM 43.9 °F 39.3 °F 42.3 °F 94% 30.15 in 4.0 mi SSW 8.1 mph - N/A   Clear
9:35 PM 43.5 °F 40.1 °F 41.9 °F 94% 30.15 in 4.0 mi SSW 5.8 mph - N/A   Clear
9:55 PM 42.3 °F 38.6 °F 41.0 °F 95% 30.14 in 3.0 mi South 5.8 mph - N/A   Clear
10:15 PM 41.4 °F 36.8 °F 40.3 °F 96% 30.13 in 2.0 mi South 6.9 mph - N/A   Clear
10:35 PM 42.8 °F 38.6 °F 41.0 °F 93% 30.13 in 2.5 mi SSW 6.9 mph - N/A   Clear
10:55 PM 45.0 °F 40.6 °F 43.5 °F 95% 30.13 in 3.0 mi SSW 8.1 mph - N/A   Clear
11:15 PM 45.7 °F 40.6 °F 43.9 °F 93% 30.13 in 3.0 mi SSW 10.4 mph - N/A   Clear
11:35 PM 45.5 °F 41.3 °F 43.5 °F 93% 30.13 in 3.0 mi SSW 8.1 mph - N/A   Clear
11:55 PM 45.1 °F 39.5 °F 43.5 °F 94% 30.12 in 3.0 mi SSW 11.5 mph - N/A   Clear